{"data":{"norad_id":40045,"epoch":"2026-09-20T04:13:35.853024Z","epoch_age_seconds":42377,"freshness":"FRESH","line1":"1 40045U 14033AM  26263.17610941  .00002684  00000+0  22345-3 0  9990","line2":"2 40045  97.7322  69.2315 0038575  56.3851 304.1044 14.98951825660849","mean_motion":14.98951825,"eccentricity":0.0038575,"inclination_deg":97.7322,"raan_deg":69.2315,"arg_perigee_deg":56.3851,"mean_anomaly_deg":304.1044,"bstar":0.00022345,"rev_number":66084,"period_min":96.067130109402,"perigee_km":543.33065932765,"apogee_km":596.93656710863,"semimajor_km":6948.2706132181,"source":"CELESTRAK","updated_at":"2026-09-20T09:00:48.026628Z"}}